{"data":{"norad_id":62579,"intl_designator":"2025-007E","name":"CENTISPACE-1 S10","alt_names":[],"object_type":"PAYLOAD","status":"ACTIVE","operator":null,"country":"PRC","launch_date":"2025-01-13","launch_site_code":"YSLA","launch_vehicle":null,"mission":null,"orbit_class":"UNKNOWN","rcs_meters":null,"size_class":null,"mass_kg":null,"dimensions":null,"purposes":[],"wikipedia_slug":null,"has_3d_model":false,"image_url":null,"decayed_at":null,"tle_current":{"epoch":"2026-05-25T02:28:26.429088Z","epoch_age_seconds":62173,"freshness":"FRESH","line1":"1 62579U 25007E   26145.10308367 -.00000068  00000+0  68380-4 0  9992","line2":"2 62579  54.9903  12.1828 0012971  54.9300 305.2871 13.80606146 71542","mean_motion":13.80606146,"eccentricity":0.0012971,"inclination_deg":54.9903,"raan_deg":12.1828,"arg_perigee_deg":54.93,"mean_anomaly_deg":305.2871,"bstar":6.838e-5,"rev_number":7154,"period_min":104.30201286385,"perigee_km":952.21704133866,"apogee_km":971.25814400697,"semimajor_km":7339.8745926728,"source":"CELESTRAK","updated_at":"2026-05-25T13:38:03.090706Z"}}}